RH
69 68 69 69 69 67 67 66 66 63 63 63 63 66 66 70 62 36 46 43 39 42 36 21 19 24 29 37 58 56 40 33 29 30 23 33 36 26 29 28 30 42 46 52 59
69 69 68 67 68 67 66 66 62 60 62 60 62 64 63 67 27 41 50 49 44 46 24 28 28 24 22 33 42 49 37 25 36 38 39 46 47 44 41 32 30 37 35 31 74
70 69 69 68 68 66 65 62 61 61 62 61 62 62 62 52 27 38 50 52 51 35 26 28 28 29 28 36 34 41 41 28 38 40 39 40 39 37 47 46 30 38 39 36 36
70 69 69 69 67 66 64 61 60 61 60 59 62 61 59 34 30 29 48 49 48 26 26 30 32 36 36 30 36 34 22 24 26 24 30 27 25 30 35 40 35 39 36 41 39
70 70 70 69 68 67 60 60 60 60 59 60 62 59 33 26 30 26 46 36 23 26 29 31 35 40 42 40 40 42 33 30 31 37 38 36 37 32 28 22 25 33 35 42 40
70 70 70 70 69 65 58 63 58 58 60 57 61 54 23 33 24 25 28 26 25 29 32 34 33 36 44 48 49 40 44 42 41 41 40 45 42 37 30 22 19 24 32 36 37
70 70 70 71 70 61 59 63 57 57 56 57 58 28 24 30 25 24 27 28 29 34 38 33 34 42 45 50 46 51 60 46 40 40 41 40 46 41 29 25 24 18 23 33 33
74 71 70 72 72 60 61 60 54 60 59 56 49 28 32 26 20 24 24 25 32 34 36 35 38 44 49 47 49 56 51 64 39 37 36 46 43 26 23 27 28 23 19 25 30
74 74 71 73 72 59 62 55 48 53 48 40 24 22 23 26 26 27 28 36 39 40 42 40 45 54 58 61 64 62 62 56 46 39 40 47 47 32 28 33 34 30 24 26 29
75 76 71 73 69 58 62 46 41 33 29 24 26 23 21 31 31 29 26 40 46 45 47 52 56 61 60 63 69 68 70 57 54 37 40 49 48 37 32 33 38 34 33 33 34
75 75 71 73 60 57 46 26 22 21 31 42 41 35 28 28 32 23 29 38 44 42 53 54 61 56 53 53 62 73 90 76 54 42 51 53 50 43 37 40 44 40 42 48 40
76 76 72 74 59 55 42 52 67 61 31 34 34 38 40 36 38 26 28 46 55 50 48 55 61 49 52 57 67 72 85 78 50 42 57 57 55 46 41 43 43 41 46 52 41
77 76 74 74 57 40 44 60 56 60 37 22 28 32 32 33 38 33 38 49 65 44 48 65 52 53 54 60 80 66 68 63 68 76 58 72 81 74 54 48 44 43 48 44 73
79 78 75 67 38 42 46 51 62 59 48 20 22 30 30 38 39 29 40 54 52 53 59 59 57 58 54 65 73 90 50 63 85 94 88 100 84 73 78 67 60 50 55 54 92
80 78 70 58 36 38 49 54 66 57 79 22 30 28 35 38 40 31 38 45 70 54 61 43 50 55 76 90 68 71 59 77 92 99 98 98 93 79 71 90 94 94 94 86 99
79 76 67 51 41 49 59 62 56 75 58 28 38 46 39 42 41 40 44 42 51 58 43 52 42 56 100 73 60 65 82 72 79 94 91 97 83 70 90 98 94 98 98 97 98
79 69 58 46 44 55 64 52 87 82 25 30 46 47 47 50 50 47 69 86 86 83 73 52 41 39 58 64 54 68 71 84 80 85 92 94 64 92 96 100 100 100 100 98 99
78 62 54 49 56 61 42 48 72 33 48 46 52 49 48 55 48 56 58 67 67 72 78 80 60 41 37 65 92 87 93 95 90 83 73 63 87 87 98 100 100 100 100 97 97
58 46 45 50 54 44 36 90 41 54 50 54 47 47 50 55 61 56 78 73 68 81 88 88 56 37 40 47 65 67 80 80 93 76 81 77 92 90 96 94 93 96 96 99 98
61 48 44 52 46 34 71 56 46 50 54 61 56 58 55 61 66 79 86 72 70 73 82 78 88 44 42 48 57 66 54 88 79 88 79 78 73 80 84 85 87 94 97 98 96
56 65 43 47 43 38 95 44 50 47 53 66 67 64 66 90 94 88 86 67 65 64 88 67 84 56 48 65 71 68 76 80 83 88 92 75 81 88 91 93 94 95 97 98 98
63 93 52 42 68 77 59 54 47 49 56 67 67 64 74 74 96 89 92 80 62 64 80 74 84 86 54 42 51 78 80 73 88 88 82 88 87 89 90 94 93 96 95 98 98
83 70 60 44 99 80 52 48 52 52 53 63 63 64 66 74 86 72 66 59 62 70 91 80 86 88 66 62 47 74 58 75 77 86 90 91 80 63 73 91 92 95 96 96 99
93 100 73 68 71 57 59 50 57 55 53 56 61 62 68 66 66 82 66 56 57 68 68 70 81 92 77 82 76 88 81 71 79 80 87 85 78 69 70 85 87 93 93 96 98
90 88 73 99 81 63 63 60 55 60 56 57 65 64 74 90 84 82 66 63 60 71 68 76 93 82 64 58 64 77 84 84 92 76 85 84 88 81 81 90 94 94 93 96 96
96 91 80 71 62 66 74 68 53 65 69 63 79 55 73 85 71 80 78 70 74 72 91 86 81 78 84 68 68 72 68 76 85 74 70 76 76 66 68 71 82 90 89 95 96
88 76 92 86 79 77 67 56 51 62 60 59 65 72 82 73 58 60 65 69 76 92 92 91 90 84 80 62 86 80 82 86 81 80 75 70 68 59 62 60 77 86 86 90 97
Wind_Speed
17 17 17 17 17 17 16 16 16 15 13 11 8 9 11 11 2 13 18 11 13 14 10 11 12 10 2 1 1 1 7 10 10 8 2 5 6 2 8 8 4 2 4 7 9
17 17 17 17 17 17 17 17 18 17 12 9 5 5 8 6 10 19 15 15 16 13 12 13 14 10 2 2 0 7 7 8 8 6 7 8 9 12 8 8 8 6 2 11 5
18 19 19 19 19 18 18 17 17 14 11 7 6 5 4 2 3 8 14 15 16 11 7 8 9 6 2 2 1 1 8 7 10 9 12 12 16 11 12 14 9 6 15 16 14
18 19 20 20 20 19 18 18 17 11 10 7 6 6 3 3 2 7 15 15 12 8 5 5 6 5 4 3 2 6 8 10 8 12 12 15 14 19 20 18 19 18 18 17 14
19 20 21 20 21 20 20 20 14 7 10 8 7 4 3 7 7 8 13 12 8 8 5 4 5 3 3 4 6 12 10 10 8 11 15 16 19 21 22 21 19 21 20 16 14
19 19 20 21 22 20 21 20 11 8 7 8 9 3 3 7 8 10 9 13 13 9 4 4 3 3 6 5 6 5 11 16 16 17 15 18 21 18 21 18 22 23 23 19 15
19 20 21 21 23 20 23 17 9 8 5 6 8 3 18 9 6 10 9 11 10 8 7 5 4 6 1 6 6 9 17 17 19 15 10 10 18 19 20 17 22 25 24 23 22
20 21 21 21 23 22 22 10 7 5 5 5 6 1 6 1 7 14 18 14 10 3 2 4 2 3 4 4 10 12 10 7 4 6 6 7 21 18 14 15 18 22 21 23 24
21 22 22 21 21 22 21 6 5 6 6 5 1 3 4 6 12 11 12 15 9 6 4 4 2 1 3 4 7 4 12 16 17 5 10 12 18 14 10 11 16 18 19 20 22
22 22 22 21 17 21 16 2 6 1 4 0 4 2 6 11 10 10 17 8 4 3 2 1 0 2 3 4 9 15 20 21 19 8 12 19 27 25 24 19 21 19 17 17 19
21 22 22 21 13 19 9 1 2 2 12 7 3 3 8 15 1 17 20 7 4 3 6 2 3 3 7 7 11 16 18 23 22 23 21 22 26 25 20 16 21 18 16 14 16
20 21 22 19 6 16 8 6 4 4 6 4 2 2 1 6 5 20 21 9 6 7 10 2 1 4 6 10 15 16 20 21 21 13 12 20 26 22 20 18 18 17 14 16 15
19 19 20 18 1 5 12 6 3 2 0 4 4 5 5 7 5 15 16 9 6 9 9 5 3 7 8 12 11 14 15 15 19 18 21 21 18 10 11 12 15 13 10 14 9
18 19 18 17 1 2 4 6 0 1 2 11 8 7 8 5 2 9 10 5 3 8 9 4 4 7 13 9 9 14 5 12 18 16 12 4 5 7 16 10 7 5 7 7 10
16 19 15 11 3 3 6 3 3 3 2 11 6 5 7 8 8 14 9 5 5 11 5 6 8 14 6 6 13 11 18 20 18 15 14 2 6 6 11 11 15 11 11 4 7
15 18 10 1 1 3 3 4 3 2 4 3 5 10 7 6 5 11 9 9 1 5 4 7 8 4 4 14 12 15 18 16 8 4 4 11 6 6 11 12 11 9 5 15 14
13 13 4 2 5 5 2 3 1 6 2 7 6 8 7 9 6 11 8 13 12 12 13 13 3 4 6 14 4 16 15 4 3 2 5 10 4 7 15 12 10 7 14 13 12
11 5 4 3 3 2 2 2 8 1 3 2 5 5 5 11 5 10 6 7 13 10 7 9 5 10 13 5 9 13 7 5 7 8 8 7 7 8 12 11 10 11 10 12 9
5 2 1 5 2 2 3 6 2 3 2 5 5 3 2 3 6 9 6 6 7 9 8 7 6 9 6 7 6 10 9 9 6 5 4 4 3 4 13 13 14 16 15 15 14
1 3 1 7 1 2 4 3 1 1 1 1 3 4 5 7 8 8 6 3 6 7 2 3 10 4 10 5 1 5 11 4 3 6 5 4 5 8 17 17 14 14 14 13 12
2 2 2 5 2 4 4 2 3 2 1 2 1 2 1 3 3 4 4 2 3 8 3 6 3 6 9 7 9 7 7 6 5 3 5 4 5 8 11 10 9 10 10 10 10
2 2 3 3 3 2 2 3 2 4 2 1 2 2 2 1 3 3 4 4 2 6 7 2 5 7 6 10 5 2 9 6 5 6 3 4 4 8 8 7 7 7 8 8 8
2 2 1 2 1 2 2 1 2 4 3 3 3 3 2 2 4 4 3 2 1 4 7 5 1 7 1 3 2 4 11 9 6 3 4 5 4 7 6 6 7 8 8 8 8
2 2 2 4 2 3 3 3 3 2 2 2 2 2 2 3 3 4 4 1 2 1 6 2 3 4 5 6 7 10 14 11 5 4 5 5 5 11 10 8 8 7 7 5 6
2 2 1 1 1 3 1 2 3 4 2 3 3 8 5 2 2 4 3 5 1 2 3 3 4 4 13 17 11 10 13 9 3 3 4 5 4 7 8 8 6 5 7 5 6
4 4 1 2 2 3 2 5 6 3 6 5 5 5 7 5 4 3 1 2 3 1 2 2 3 6 5 2 3 8 7 6 3 2 2 1 3 2 2 1 5 5 3 3 4
1 1 2 3 3 3 4 4 6 5 5 3 6 5 8 11 9 9 6 7 8 6 2 3 5 6 4 5 8 3 2 3 4 3 3 2 3 4 1 2 3 3 4 4 4
Wind_Direction
15 13 10 6 4 0 357 354 351 348 344 346 358 358 360 5 266 66 45 28 24 7 339 358 18 13 18 97 321 250 250 259 267 242 253 26 336 360 328 271 286 267 313 334 318
12 9 7 4 1 357 355 354 349 347 353 1 12 0 339 351 65 56 20 10 7 6 4 10 8 357 25 3 204 230 251 277 341 296 282 316 322 324 315 294 282 234 157 2 345
8 5 3 360 358 355 351 349 347 351 356 10 13 1 347 290 98 25 358 355 349 358 6 8 352 357 7 338 55 267 256 305 276 290 303 298 292 290 289 270 259 322 321 322 316
7 4 0 357 354 351 346 344 344 352 19 30 24 26 92 203 53 11 344 351 343 345 345 350 355 0 327 325 355 275 261 274 287 293 294 286 297 275 267 268 289 289 306 304 287
7 2 358 354 350 346 345 343 344 349 13 20 21 21 208 74 41 355 342 1 357 341 342 327 315 344 310 290 290 256 279 290 286 279 282 286 272 268 268 283 273 271 283 285 291
5 2 358 353 349 345 347 344 352 351 347 9 15 307 65 75 349 347 341 338 347 317 283 253 275 300 282 255 258 315 286 288 288 281 279 275 274 270 261 255 265 257 257 264 284
4 2 359 353 348 345 347 345 356 350 354 21 17 24 62 57 354 357 350 328 324 307 288 265 275 224 120 274 285 282 290 288 272 267 279 277 267 244 261 259 256 260 255 255 266
2 360 359 355 347 339 347 349 358 23 52 28 12 355 73 120 356 10 348 348 8 15 270 314 221 253 255 316 271 281 280 310 129 279 270 217 271 279 272 264 264 262 262 251 255
0 357 357 355 349 336 345 345 15 52 6 353 6 346 52 340 2 350 354 330 333 39 64 87 174 270 202 300 284 178 296 298 306 213 284 229 286 285 283 276 274 267 259 247 248
356 354 353 354 355 341 346 324 17 54 3 192 70 162 50 339 332 336 358 340 351 347 146 64 93 232 233 304 318 308 297 293 287 267 266 279 275 278 275 271 262 260 262 252 238
354 352 351 352 2 357 356 245 338 65 38 37 39 50 335 336 246 1 351 346 343 33 5 29 276 351 346 311 298 287 277 281 283 284 286 280 274 276 278 266 254 252 246 246 248
353 351 348 351 18 10 18 55 36 341 87 39 21 322 323 329 327 360 356 13 2 5 348 260 47 24 322 300 299 296 292 286 288 296 282 279 275 280 271 260 252 252 240 229 215
349 350 345 347 33 46 58 43 318 214 90 47 16 338 340 328 22 360 2 339 355 341 349 300 357 320 324 327 315 302 290 290 290 308 281 269 276 311 289 259 249 227 234 212 177
344 347 348 341 230 9 64 347 204 252 146 5 1 27 334 337 90 10 9 360 355 328 336 286 316 318 319 321 338 304 308 296 298 302 313 176 299 30 346 23 360 191 189 193 163
340 344 355 20 351 40 334 333 143 235 97 356 347 328 345 31 332 13 13 2 4 329 300 15 323 333 314 302 331 271 305 301 293 280 299 125 261 7 357 358 345 17 32 300 73
338 344 348 48 72 38 317 140 212 206 43 22 337 356 356 25 16 334 12 19 310 323 299 282 302 269 263 299 298 286 298 302 274 276 255 355 306 44 6 329 326 18 340 65 38
337 349 17 341 343 338 203 219 246 56 22 358 341 343 339 351 357 3 16 36 36 350 1 325 331 302 310 324 331 335 330 322 289 306 356 353 19 46 345 2 4 348 35 46 54
344 12 32 49 339 201 244 268 61 71 313 6 327 325 23 358 29 360 4 35 39 10 314 346 334 2 351 353 303 317 324 350 315 342 341 31 17 16 0 356 25 26 44 52 50
347 8 259 358 5 248 295 45 19 208 303 319 302 323 31 22 344 349 33 19 28 14 2 333 283 324 316 326 315 339 359 319 278 221 265 20 139 235 12 10 23 29 36 39 36
54 325 298 337 337 269 61 117 144 215 264 303 359 350 331 347 343 12 11 33 4 34 281 344 291 319 316 310 29 314 328 307 323 323 347 66 55 4 348 360 12 22 25 27 34
54 335 66 340 250 43 69 110 170 175 225 301 283 283 309 314 342 321 327 260 4 358 261 322 259 301 300 23 347 354 9 350 276 321 325 345 50 1 345 350 4 24 21 24 27
128 294 23 283 31 36 78 162 161 159 154 208 242 243 260 278 261 265 279 245 11 342 339 9 294 288 297 319 306 320 5 352 320 357 6 311 72 343 350 9 41 39 39 27 37
79 299 64 307 101 99 139 158 242 175 193 206 228 235 226 265 287 246 262 222 267 2 3 352 215 304 202 177 109 359 345 347 303 259 18 324 45 13 1 12 29 47 39 35 30
129 323 14 57 19 115 157 186 212 200 189 188 227 205 228 249 234 293 277 291 5 60 22 282 267 267 294 316 321 300 324 345 329 312 343 36 341 4 10 2 9 29 38 33 45
355 142 31 282 124 110 135 178 178 208 211 194 217 224 200 231 260 242 263 301 202 20 26 34 269 287 279 277 274 271 290 319 352 6 343 10 3 7 351 344 354 359 11 33 69
144 155 87 107 110 142 120 212 209 173 173 200 219 201 190 218 227 261 180 252 298 355 35 352 296 327 287 188 305 287 292 313 282 309 224 273 52 2 0 327 332 339 11 41 19
129 59 140 132 148 192 204 192 210 166 203 221 203 183 222 248 263 266 255 270 274 292 0 344 338 336 278 321 311 223 253 301 301 266 314 333 35 338 41 64 50 2 322 8 29